Location: Newark
(42.9277°N, 71.8621°W)
Time: 05:12:39
(UTC+00:00)

Transit 2A - Visible Passes

Search period start: 06 June 2020 00:00
Search period end: 16 June 2020 00:00
Orbit: 593 x 966 km, 66.7° (Epoch: 05 June)

Date Brightness Start Highest point End Pass type
(mag) Time Alt. Az. Time Alt. Az. Time Alt. Az.
06 Jun 7.3 02:20:11 10° NW 02:26:03 42° WSW 02:30:23 18° S visible
07 Jun 6.9 01:45:51 10° NW 01:52:01 58° WSW 01:57:25 14° S visible
08 Jun 6.6 01:11:37 10° NNW 01:17:55 79° WSW 01:24:17 10° SSE visible
08 Jun 8.7 02:57:19 10° WNW 03:00:15 14° WSW 03:03:12 10° SW visible
09 Jun 8.4 02:22:00 10° WNW 02:26:23 20° WSW 02:30:47 10° SSW visible
10 Jun 8.1 01:47:14 10° NW 01:52:29 28° WSW 01:57:44 10° SSW visible
11 Jun 7.6 01:12:42 10° NW 01:18:30 39° WSW 01:24:18 10° S visible
13 Jun 8.9 01:50:11 10° WNW 01:52:39 12° W 01:55:07 10° WSW visible
14 Jun 8.7 01:14:38 10° WNW 01:18:48 18° WSW 01:22:57 10° SW visible
